Location: Northam
(31.6525°S, 116.6655°E)
Time: 14:26:59
(UTC+08:00)

Envisat - Pass Details

Date: 16 May 2021
Orbit: 764 x 766 km, 98.1° (Epoch: 18 June)

Event Time Altitude Azimuth Distance (km) Brightness Sun altitude
Rises 05:47:09 0° 346° (NNW) 3,215 6.2 -14.5°
Reaches altitude 10° 05:49:46 10° 333° (NNW) 2,298 5.3 -14.0°
Maximum altitude 05:54:00 27° 276° (W) 1,460 3.9 -13.1°
Enters shadow 05:58:04 11° 221° (SW) 2,253 4.9 -12.3°
